FENGYUN 1C DEB, 46441

Orbit data source: Space-Track

FENGYUN 1C DEB, 46441 is space debris in LEO originally from a launch on Mon, 10 May 1999 UTC launched from the Taiyaun Space Center, China (TSC). Fengyun 1C debris stems from the Chinese weather satellite Fengyun-1C, which was intentionally destroyed by a Chinese anti-satellite missile in 2007. This event dramatically increased the amount of space debris, with thousands of trackable fragments posing hazards to satellites and human spaceflight. The Fengyun 1C debris cloud has become a focal point in discussions about space sustainability and the need for international regulations to prevent the creation of new debris.

Loading next visibility...
Identifier
46441, 1999-025EYW
Orbit
LEO
Country
Flag of CNCN / PRC
Related business
Manufacturer
Unknown
Mission
Spacecraft
Bus & Motor
Unknown
Mass
Unknown
Launch date (UTC)
1999-05-10 (27 years ago)
Launch vehicle
Unknown
Launch site
Taiyaun Space Center, China (TSC)
Object type
Payload
Rocket body
Debris
Shape & HBR
Unknown shape, 1.1 m
Radar Cross Section
Small (<0.1 m²)

Expand to show TLE details & history
Last TLE update: 3 months ago

TLE from 3 months ago
0 FENGYUN 1C DEB
1 46441U 99025EYW 26164.50421421  .00009333  00000-0  54206-2 0  9999
2 46441  95.2572  90.6006 0305878 291.1372  65.7358 13.87895503311972
Epoch: 2026-06-13T12:06Z
TLE epoch observation values (Epoch: 2026-06-13T12:06:04.107Z)
Latitude
0.00003°
Longitude
7.26513°
Altitude
852.816 km
Speed
7.47 km/s
True Right ascension
06h 02m 24s
True Declination
0° 00' 00"
Sunlit
Object was in daylight at epoch
Visualization orbit readout
Latitude
Unknown
Longitude
Unknown
Altitude
Unknown
Speed
Unknown
Apparent Right ascension
Unknown
Apparent Declination
Unknown
Sunlit
N/A
Visualization observer readout
Local Sidereal Time
00:57:06
Azimuth
Unknown
Elevation
Unknown
Doppler factor
Unknown
Orbital elements
Apogee altitude
1,156.716 km
Perigee altitude
709.448 km
Semi-major axis
7,311.219 km
Eccentricity
0.03059
Inclination
95.2572°
RAAN
90.6006°
Arg. of periapsis
291.1372°
True anomaly
68.9805°
Mean anomaly
65.7358°
Eccentric anomaly
67.35322°
Mean motion
3.47183 °/min
Orbital period
103.69 mins
BSTAR
0.0054206
Loading maneuver chart data...
Computing Atmospheric mass density...
Loading historical data...
Loading historical data...
Loading historical data...
Loading historical data...
Loading historical data...
Loading historical data...
Loading historical data...

Documentation

Showing up to 5 results
|